ATLAS 5 CENTAUR DEB, 44649

Orbit data source: Space-Track

ATLAS 5 CENTAUR DEB, 44649 is space debris in HEO originally from a launch on Wed, 17 Oct 2018 UTC launched from the Air Force Eastern Test Range (AFETR). Debris objects in space refer to the collection of defunct objects orbiting the Earth. Examples of debris include non-operational satellites, rocket bodies, and fragments generated from explosions, collisions, or faulty payload assembly.

Loading next visibility...
Identifier
44649, 2018-079K
Orbit
HEO
Country
Flag of USUS
Related business
Flag of USUnited Launch Alliance/Lockheed Martin (US)
Manufacturer
ULA Decatur
Mission
Spacecraft
Bus & Motor
Unknown
Mass
Unknown
Launch date (UTC)
2018-10-17 (8 years ago)
Launch vehicle
Unknown
Launch site
Air Force Eastern Test Range (AFETR)
Object type
Payload
Rocket body
Debris
Shape & HBR
Unknown shape, 1.1 m
Radar Cross Section
RCS unknown

Expand to show TLE details & history
Last TLE update: 18 hours ago

TLE from 18 hours ago
0 ATLAS 5 CENTAUR DEB
1 44649U 18079K   26126.13271184 -.00000139  00000-0  00000-0 0  9990
2 44649  13.2332  31.3335 4758211 326.0712  11.1369  1.84017137 47633
Epoch: 2026-05-06T03:11Z
TLE epoch observation values (Epoch: 2026-05-06T03:11:06.302Z)
Latitude
0.00002°
Longitude
119.51497°
Altitude
9,222.375 km
Speed
6.077 km/s
True Right ascension
02h 05m 09s
True Declination
0° 00' 00"
Sunlit
Object was in daylight at epoch
Visualization orbit readout
Latitude
Unknown
Longitude
Unknown
Altitude
Unknown
Speed
Unknown
Apparent Right ascension
Unknown
Apparent Declination
Unknown
Sunlit
N/A
Visualization observer readout
Local Sidereal Time
05:33:56
Azimuth
Unknown
Elevation
Unknown
Doppler factor
Unknown
Orbital elements
Apogee altitude
35,139.221 km
Perigee altitude
8,367.907 km
Semi-major axis
28,131.701 km
Eccentricity
0.47582
Inclination
13.2332°
RAAN
31.3335°
Arg. of periapsis
326.0712°
True anomaly
34.28489°
Mean anomaly
11.1369°
Eccentric anomaly
20.83245°
Mean motion
0.45999 °/min
Orbital period
782.62 mins
BSTAR
0
Loading maneuver chart data...
Computing Atmospheric mass density...

Documentation

Showing up to 5 results
|